Weather in Vozhgora

Russia / Arkhangel'skaya Oblast'     64°32′11″N   48°27′14″E
temp.,
°C
wind,
m/s
gust,
m/s
humid.,
%
clouds,
%
prec.,
mm/h
press.,
hPa
HPBL,
m
6 december, mon
mon600:00−12nw26938 0.0 1023110
03:00−16wnw259721 0.0 102482
06:00−17wnw249829 0.0 102465
09:00−18w25965 0.0 102471
12:00−15w3119179 0.0 1024316
15:00−14w3129050 0.0 1024358
18:00−13w31292100 0.0 1024417
21:00−10w41391100 0.1 1024753
7 december, tue
tue700:00−9w41193100 0.1 1024619
03:00−10w41292100 0.2 1026577
06:00−10w4139273 0.0 1027496
09:00−12w3109459 0.0 1028274
12:00−12wsw3109412 0.0 1030262
15:00−15sw229637 0.0 103137
18:00−18s11975 0.0 103113
21:00−19ese11985 0.0 103228
8 december, wed
wed800:00−18ese24975 0.0 103181
03:00−15ese3129323 0.0 1029256
06:00−13ese41384100 0.0 1027401
09:00−11ese41487100 0.0 1024502
12:00−10ese41293100 0.2 1022588
15:00−9ese41094100 1.4 1020575
18:00−9ese3895100 1.9 1019483
21:00−10ese279589 2.3 1019297
9 december, thu
thu900:00−11ese259785 0.1 1019118
03:00−12ese129883 0.3 101946
06:00−12se119888 0.2 102031
09:00−12sse119879 0.3 102035
12:00−12s129772 0.1 102170
15:00−13sw139891 0.2 102165
18:00−14sw129874 0.1 102253
21:00−14sw159784 0.3 1022131
10 december, fri
fri1000:00−14wsw269693 0.1 1023160
03:00−15sw289644 0.1 1024175
06:00−14wsw289679 0.0 1025195
09:00−14wsw279536 0.1 1026115
12:00−12wsw310895 0.0 1027230
15:00−16wsw239829 0.0 102948
18:00−18wsw119955 0.0 103013
21:00−18wsw1110087 0.0 103115